Regional Weather Roundup
Issued by NWS

Home | Current Version | Previous Version | Graphics & Text | Print | Product List | Glossary On
Versions: 1 2 3 4 5 6 7 8 9 10 11 12 13 14 15 16 17 18 19 20 21 22 23 24 25 26 27 28 29 30 31 32 33 34 35 36 37 38 39 40 41 42 43 44 45 46 47 48 49 50
000
ASUS43 KMKX 301000
RWRWI

WISCONSIN REGIONAL WEATHER ROUNDUP
NATIONAL WEATHER SERVICE MILWAUKEE/SULLIVAN WI
500 AM CDT TUE AUG 30 2016

NOTE: "FAIR" INDICATES FEW OR NO CLOUDS BELOW 12,000 FEET WITH NO
SIGNIFICANT WEATHER AND/OR OBSTRUCTIONS TO VISIBILITY.

WIZ001-002-006>008-014>016-023>028-301100-
NORTHWEST WISCONSIN

CITY           SKY/WX    TMP DP  RH WIND       PRES   REMARKS
SUPERIOR ARPT  CLOUDY    66  65  94 CALM      30.13S
ASHLAND        CLOUDY    65  64  97 W7        30.11F
HAYWARD        MOCLDY    63  61  93 CALM      30.14F
SIREN          CLOUDY    65  64  97 NW7       30.15S
CUMBERLAND     CLOUDY    64  61  88 NW9       30.13F
RICE LAKE      CLOUDY    65  61  85 NW5       30.14S
CHETEK         NOT AVBL
LADYSMITH      CLOUDY    65  62  89 N3        30.14S
EAU CLAIRE     NOT AVBL
MENOMONIE      CLOUDY    66  64  91 SW5       30.10F
NEW RICHMOND   CLOUDY    65  64  96 NW5       30.14F
OSCEOLA        CLOUDY    65  65 100 W3        30.17F
$$

WIZ003>005-009-010-017-018-301100-
NORTH CENTRAL WISCONSIN

CITY           SKY/WX    TMP DP  RH WIND       PRES   REMARKS
MANITOWISH WTR NOT AVBL
ARBOR VITAE      N/A     65  64  94 CALM      30.15R FOG
WOODRUFF         N/A     65  64  94 CALM      30.15R FOG
RHINELANDER    FOG       67  67 100 CALM      30.15S VSB 1/4
EAGLE RIVER    FOG       65  65 100 SW3       30.14S VSB 3/4
LAND O LAKES   CLOUDY    66  64  95 SW3       30.15S
PHILLIPS       MOCLDY    64  61  88 CALM      30.14R
TOMAHAWK       CLOUDY    66  65  96 CALM      30.15F FOG
MEDFORD        CLOUDY    64  64 100 NW5       30.14R
MERRILL        CLOUDY    67  66  97 NW3       30.15R
$$

WIZ029-030-035-036-043>047-301100-
CENTRAL WISCONSIN

CITY           SKY/WX    TMP DP  RH WIND       PRES   REMARKS
WAUSAU         CLOUDY    68  65  90 W3        30.11F
MOSINEE        PTCLDY    63  63 100 CALM      30.14F FOG
MARSHFIELD       N/A     66  63  90 SW5       30.12F
STEVENS POINT  CLOUDY    67  67 100 SW3       30.14F FOG
WAUPACA        FOG       67  67  99 CALM      30.13F VSB 1/2
WAUTOMA        CLOUDY    69  68  96 SW5       30.14F FOG
WISC RAPIDS    FOG       67  67 100 SW3       30.14F VSB 1/2
CAMP DOUGLAS   FOG       65  65 100 W5        30.14F VSB 1/2
$$

WIZ011>013-019>022-031-037>040-048>050-301100-
NORTHEAST WISCONSIN

CITY           SKY/WX    TMP DP  RH WIND       PRES   REMARKS
ANTIGO         FOG       65  65 100 CALM      30.13F VSB 1/4
SHAWANO        MOCLDY    70  68  93 S5        30.11F FOG
OCONTO         NOT AVBL
STURGEON BAY   PTCLDY    69  68  96 S7        30.10F
GREEN BAY      PTCLDY    67  67 100 S6        30.11F FOG
MANITOWOC      NOT AVBL
APPLETON       CLOUDY    68  68 100 W3        30.12F FOG
CLINTONVILLE   FOG       64  64 100 S3        30.11F VSB 1/2
OSHKOSH        CLOUDY    70  68  93 S6        30.13F
$$

WIZ032>034-041-042-053>061-301100-
SOUTHWEST WISCONSIN

CITY           SKY/WX    TMP DP  RH WIND       PRES   REMARKS
LA CROSSE      CLOUDY    73  71  93 CALM      30.15F FOG
SPARTA         FOG       64  64 100 CALM      30.16F VSB 1/4
VIROQUA        CLOUDY    69  69 100 CALM      30.18S VSB 1/4
BOSCOBEL       FOG       71  70  96 CALM      30.15S VSB 1/4
PRAIRIE DU CHI FOG       72  70  95 CALM      30.14F VSB 1/4
PLATTEVILLE    MOCLDY    70  70 100 CALM      30.16F
$$

WIZ056-057-062-063-064-067-068-301100-
SOUTH CENTRAL WISCONSIN

CITY           SKY/WX    TMP DP  RH WIND       PRES   REMARKS
REEDSBURG      NOT AVBL
BARABOO/DELLS    N/A     68  66  94 CALM      30.14F FOG
LONE ROCK      CLOUDY    71  70  96 NW3       30.15F FOG
MINERAL POINT  CLOUDY    70  70 100 CALM      30.16F FOG
MADISON        CLOUDY    69  68  96 MISG      30.14F
MIDDLETON      CLOUDY    69  69 100 CALM      30.16F
WATERTOWN      PTCLDY    68  68 100 CALM      30.14F
MONROE         CLOUDY    70  68  94 SW5       30.15F
JANESVILLE     CLOUDY    70  68  94 CALM      30.15S FOG
$$

WIZ051-052-058>065-066-070>072-301100-
SOUTHEAST WISCONSIN

CITY           SKY/WX    TMP DP  RH WIND       PRES   REMARKS
MILWAUKEE      CLOUDY    74  67  78 W3        30.14F
WAUKESHA       CLOUDY    68  64  88 CALM      30.16F
MILWAUKEE/TIMM MOCLDY    70  63  78 CALM      30.14F
RACINE         CLOUDY    71  68  90 CALM      30.15F
BURLINGTON     PTCLDY    65  65  97 CALM      30.14F
KENOSHA        CLOUDY    70  68  93 CALM      30.15F FOG
FOND DU LAC    CLOUDY    70  68  93 SW5       30.14F
SHEBOYGAN      CLOUDY    69  66  90 W5        30.13F
WEST BEND      PTCLDY    70  64  83 W5        30.15S
JUNEAU         CLOUDY    67  67  98 CALM      30.16F FOG
$$

LSZ147-162-301100-
LAKE SUPERIOR

STATION/POSITION TIME  TEMP    WIND        PRES    WAVE
                       AIR SEA DIR/SP/G            HT/PER
                 (UTC) (F)     (DEG/KT/KT) (MB)    (FT/S)
W MID LAKE BUOY  0850   69 67  260/ 14/ 17 1018.2R   2/ 4
DEVILS ISLAND    0900   68     250/ 14/ 19 1019.2F
PORT WING        0900   69     210/  4/  6 1020.0
SAXON HARBOR     0940   68     200/  5/  8 1019.3S
$$

LMZ867-665-643>646-301100-
LAKE MICHIGAN

STATION/POSITION TIME  TEMP    WIND        PRES    WAVE
                       AIR SEA DIR/SP/G            HT/PER
                 (UTC) (F)     (DEG/KT/KT) (MB)    (FT/S)
CHAMBERS ISLAND  0900   72     180/  3/  6 1019.3F
S GREEN BAY BUOY 0930   73 73  200/ 10/ 12 1018.7F
N MID LAKE BUOY  0850   72 71  230/ 12/ 14 1018.8F   2/ 4
NORTHPORT PIER   0900   74     240/  3/  7 1019.3S
SISTER BAY       0822   75     240/ 12/ 14   N/A
KEWAUNEE LAKESHO 0900   69     280/  1/  3 1019.9F
SHEBOYGAN LAKESH 0900   72     270/  7/  9 1020.0F
PORT WASHINGTON  0900   72     180/  3/  4 1021.0
ATWATER BUOY     0900   72     230/  2/  2   N/A
MILWAUKEE LAKESH 0910   72        CALM       N/A
S MID LAKE BUOY  0850   75 76   CALM  /  2 1020.2F   0
KENOSHA   LAKESH 0900   72     320/  2/  3 1020.7S
$$

TC  - TEMPERATURE IN CELSIUS
VSB - VISIBILITY IN STATUTE MILES
WCI - WIND CHILL INDEX
HX  - HEAT INDEX




USA.gov is the U.S. government's official web portal to all federal, state and local government web resources and services.